Tracking 28794 objects as of 19-Apr-2024
HD Live streaming from Space Station
objects crossing your sky now

DMSP 5D-2 F11 DEB

Track DMSP 5D-2 F11 DEB now!
10-day predictions


NORAD ID: 29077
Int'l Code: 1991-082BY
Perigee: 760.0 km
Apogee: 878.0 km
Inclination: 98.7 °
Period: 101.1 minutes
Semi major axis: 7189 km
RCS: 0.008 m2 (small)
Launch date: November 28, 1991
Source: United States (US)
Launch site: AIR FORCE WESTERN TEST RANGE (AFWTR)

Note: This is SATELLITE DEBRIS
Your satellite tracking list
Your tracking list is empty




NASA's NSSDC Master Catalog

Two Line Element Set (TLE):
1 29077U 91082BY  24109.13915425  .00016952  00000-0  71330-2 0  9990
2 29077  98.6960 234.5273 0082060   9.2269 351.0395 14.23998393 12500
Source of the keplerian elements: AFSPC